Estación de Casablanca

Ultimos registro cada 15 minutos 62
Estación Fecha / Hora Temperatura Humedad Lluvia Velocidad Dirección Radiación Presion
62 Casablanca 04-05-2026 15:15 23,2 54,6 0 1 274 128,1 984,9
61 Casablanca 04-05-2026 15:00 23,2 51,7 0 1 278 201,9 984,8
60 Casablanca 04-05-2026 14:45 23,3 53,3 0 0,5 288 153,1 985,2
59 Casablanca 04-05-2026 14:30 23,5 50,5 0 0,5 282 331,9 985,2
58 Casablanca 04-05-2026 14:15 23,5 50,6 0 1 268 124,4 985,2
57 Casablanca 04-05-2026 14:00 23,1 52,4 0 1 274 354,4 985,4
56 Casablanca 04-05-2026 13:45 24,1 48,7 0 0,5 272 425,6 985,7
55 Casablanca 04-05-2026 13:30 23,3 44,6 0 1 279 511,9 985,8
54 Casablanca 04-05-2026 13:15 23,4 45,8 0 1 272 275,6 986,1
53 Casablanca 04-05-2026 13:00 24 43,5 0 0,5 279 505,6 986,3
52 Casablanca 04-05-2026 12:45 24,1 43 0 0,5 278 615,6 986,5
51 Casablanca 04-05-2026 12:30 23,3 42,6 0 0,5 278 401,9 986,7
50 Casablanca 04-05-2026 12:15 23,5 39,6 0 0,5 267 473,1 986,8
49 Casablanca 04-05-2026 12:00 23,3 38,1 0 0 299 639,4 986,8
48 Casablanca 04-05-2026 11:45 22,4 32,2 0 0 49 440,6 987,2
47 Casablanca 04-05-2026 11:30 21,4 30,9 0 0 84 488,1 987,1
46 Casablanca 04-05-2026 11:15 19,7 32,1 0 0 91 384,4 987,3
45 Casablanca 04-05-2026 11:00 18,4 33 0 0 86 438,1 987,5
44 Casablanca 04-05-2026 10:45 16,2 35,6 0 0 129 364,4 987,7
43 Casablanca 04-05-2026 10:30 16 34,1 0 0 108 445,6 987,6
42 Casablanca 04-05-2026 10:15 14,5 36,7 0 0 101 298,1 987,8
41 Casablanca 04-05-2026 10:00 13,1 40,2 0 0 80 413,1 987,7
40 Casablanca 04-05-2026 09:45 11,5 42,6 0 0 329 308,1 987,7
39 Casablanca 04-05-2026 09:30 10,2 44,8 0 0 265 361,9 987,8
38 Casablanca 04-05-2026 09:15 8,7 49,3 0 0 265 259,4 987,9
37 Casablanca 04-05-2026 09:00 7,1 54,4 0 0 265 163,1 988
36 Casablanca 04-05-2026 08:45 6,3 58,6 0 0 265 183,1 988
35 Casablanca 04-05-2026 08:30 4,1 66,8 0 0 265 148,1 987,8
34 Casablanca 04-05-2026 08:15 2,1 75,6 0 0 265 23,1 987,8
33 Casablanca 04-05-2026 08:00 0,1 78,3 0 0 265 43,1 987,7
32 Casablanca 04-05-2026 07:45 -0,5 78,3 0 0 265 6,9 987,8
31 Casablanca 04-05-2026 07:30 -0,1 76,6 0 0 265 3,1 987,6
30 Casablanca 04-05-2026 07:15 -0,1 77,7 0 0 265 0,6 987,5
29 Casablanca 04-05-2026 07:00 -0,4 79,5 0 0 265 0,6 987,5
28 Casablanca 04-05-2026 06:45 -0,3 78,6 0 0 265 0,6 987,4
27 Casablanca 04-05-2026 06:30 0,8 74,4 0 0 265 0,6 987,5
26 Casablanca 04-05-2026 06:15 0,9 74,7 0 0 265 0,6 987,4
25 Casablanca 04-05-2026 06:00 0,3 75,6 0 0 265 0,6 987,2
24 Casablanca 04-05-2026 05:45 -0,1 76,7 0 0 265 0,6 987
23 Casablanca 04-05-2026 05:30 0,2 76,8 0 0 265 0,6 987
22 Casablanca 04-05-2026 05:15 1 73,6 0 0 265 0,6 987
21 Casablanca 04-05-2026 05:00 0,5 74,9 0 0 265 0,6 987
20 Casablanca 04-05-2026 04:45 0,3 75,9 0 0 265 0,6 987,1
19 Casablanca 04-05-2026 04:30 -0,1 77,2 0 0 265 0,6 987
18 Casablanca 04-05-2026 04:15 0,1 77,1 0 0 265 0,6 987
17 Casablanca 04-05-2026 04:00 0,7 72,9 0 0 265 0,6 987,1
16 Casablanca 04-05-2026 03:45 0,7 73,3 0 0 265 0,6 987,3
15 Casablanca 04-05-2026 03:30 0,4 72,8 0 0 265 0,6 987,3
14 Casablanca 04-05-2026 03:15 0,5 74,9 0 0 265 0,6 987,4
13 Casablanca 04-05-2026 03:00 0,8 72,6 0 0 265 0,6 987,7
12 Casablanca 04-05-2026 02:45 1,4 70,9 0 0 265 0,6 987,7
11 Casablanca 04-05-2026 02:30 1,2 72,4 0 0 265 0,6 987,8
10 Casablanca 04-05-2026 02:15 0,9 75,1 0 0 265 0,6 987,9
9 Casablanca 04-05-2026 02:00 1,3 71,4 0 0 265 0,6 987,9
8 Casablanca 04-05-2026 01:45 2,7 65,9 0 0 265 0,6 988,1
7 Casablanca 04-05-2026 01:30 2,1 67,5 0 0 265 0,6 988,2
6 Casablanca 04-05-2026 01:15 1,9 68,8 0 0 265 0,6 988,4
5 Casablanca 04-05-2026 01:00 1,9 70,7 0 0 265 0,6 988,6
4 Casablanca 04-05-2026 00:45 3,7 61,4 0 0 265 0,6 988,6
3 Casablanca 04-05-2026 00:30 3,2 64,1 0 0 265 0,6 988,7
2 Casablanca 04-05-2026 00:15 3 65,8 0 0 265 0,6 988,7
1 Casablanca 04-05-2026 00:00 3,5 63,2 0 0 265 0,6 988,8